[[{"header":{"parameterUnit":"m.s-1","parameterCategory":1,"la1":30.2991,"la2":30.254,"lo1":-89.0895,"lo2":-89.0444,"dy":0.0017,"dx":0.0017,"nx":28,"ny":28,"refTime":"2024-02-15T03:00:00:Z","depth":0,"parameterNumber":2,"parameterNumberName":"U-component_of_WINDS"},"data":[0,0,0,0,0,0,0,0,0,0,0,0,0,0,0,0,0,0,0,0,0,0,0,0,0,0,0,0,0,0,0,0,0,0,0,0,0,0,0,0,0,0,0,0,0,0,0,0,0,0,0,0,0,0,0,0,0,0,0.2884,0.2884,0,0.2892,0.2892,0.2892,0.2893,0.2892,0.2892,0.2892,0.2901,0.2901,0.2901,0,0,0,0,0,0,0,0,0,0,0,0,0,0.2867,0.2867,0.2883,0.2884,0.2884,0.2892,0.2892,0.2892,0.2893,0.2892,0.2892,0.2892,0.2901,0.2901,0.2901,0,0,0,0,0,0,0,0,0,0,0,0,0,0.2875,0.2867,0.2883,0.2885,0.2885,0.2892,0.2892,0.2892,0.2893,0.2892,0.2892,0.2892,0.29,0.2901,0.2901,0.2908,0,0,0.2903,0.2903,0,0,0,0,0,0,0,0,0.2874,0.2875,0.2885,0.2885,0.2885,0.2891,0.289,0.2897,0.2893,0.289,0.2892,0.2892,0.2898,0.2898,0.29,0.2908,0.2908,0.2903,0.2903,0.2903,0.2904,0,0,0,0,0,0,0,0.2874,0.2875,0.2887,0.2885,0.2885,0.2885,0.2886,0.2891,0.2894,0.289,0.289,0.2891,0.2898,0.29,0.29,0.2908,0.2903,0.2903,0.2904,0.2904,0.2922,0.2922,0,0,0,0,0,0,0.2873,0.2875,0.2887,0.2887,0.2879,0.2885,0.2886,0.2889,0.2894,0.2895,0.2891,0.2891,0.2899,0.29,0.2901,0.2909,0.2903,0.2904,0.2904,0.2922,0.2922,0.2923,0,0,0,0,0,0,0.2873,0.2874,0.2886,0.2881,0.2882,0.2886,0.2889,0.289,0.2892,0.2895,0.2896,0.2893,0.2899,0.29,0.2906,0.2909,0.2904,0.2905,0.2922,0.2922,0.2922,0.2924,0,0,0,0,0,0,0.2872,0.2874,0.2876,0.2881,0.2883,0.2891,0.2889,0.289,0.2893,0.2892,0.2897,0.2897,0.2899,0.2905,0.2907,0.2909,0.2905,0.2922,0.2922,0.2922,0.2924,0.2925,0.2925,0,0,0,0,0,0.2872,0.2876,0.2876,0.2878,0.2886,0.2892,0.2893,0.2894,0.2893,0.2895,0.2898,0.2897,0.2908,0.2906,0.2907,0.291,0.2921,0.2922,0.2922,0.2924,0.2924,0.2925,0,0,0,0,0,0,0.2871,0.2877,0.2877,0.2883,0.2887,0.2892,0.2895,0.2895,0.2899,0.2899,0.29,0.2901,0.2907,0.291,0.2907,0.2917,0.2915,0.2916,0.2915,0.2916,0.2917,0.2916,0.2905,0,0,0,0,0,0.2872,0.2877,0.2881,0.2886,0.2888,0.2891,0.2894,0.2895,0.2898,0.29,0.2903,0.2906,0.2911,0.2914,0.2918,0.2924,0.2925,0.2927,0.2928,0.2928,0.2929,0.2933,0.2934,0.2924,0.2924,0.2924,0,0,0.2874,0.2877,0.288,0.2886,0.2889,0.2894,0.2892,0.2897,0.29,0.2901,0.2906,0.2909,0.2913,0.2919,0.2922,0.2921,0.2932,0.2929,0.2929,0.2929,0.2933,0.2934,0.2935,0.2924,0.2924,0.2924,0,0,0.2879,0.2882,0.2887,0.289,0.2894,0.2896,0.2898,0.2902,0.2904,0.291,0.291,0.2914,0.2922,0.2925,0.2928,0.2935,0.2934,0.2936,0.2939,0.2943,0.2943,0.2944,0.2947,0.2948,0.2936,0.2936,0.2936,0,0.288,0.2887,0.2889,0.2894,0.2897,0.2898,0.2903,0.2905,0.2911,0.2913,0.2912,0.2922,0.2925,0.2932,0.2934,0.2936,0.2937,0.2935,0.2943,0.2944,0.2945,0.2947,0.2948,0.2937,0.2937,0.2937,0.2937,0,0.2888,0.2893,0.2896,0.2902,0.2905,0.291,0.2913,0.2916,0.2917,0.292,0.2926,0.293,0.2935,0.2937,0.2937,0.2944,0.2943,0.2943,0.2941,0.2946,0.2948,0.2949,0.2937,0.2937,0.2937,0.2937,0,0,0.2892,0.29,0.2901,0.2904,0.291,0.2913,0.2919,0.2924,0.2927,0.2931,0.2935,0.2942,0.2941,0.2944,0.2946,0.2949,0.2955,0.2948,0.2948,0.2949,0.2963,0.2963,0.2964,0.2955,0.2955,0.2955,0.2962,0,0.2898,0.2907,0.291,0.2917,0.2922,0.2923,0.2928,0.2932,0.2934,0.2939,0.2941,0.2946,0.2945,0.2947,0.295,0.2953,0.2957,0.2953,0.2959,0.2959,0.2958,0.2965,0.2966,0.2972,0.2963,0.2963,0.2963,0,0.2906,0.291,0.2919,0.2924,0.2926,0.293,0.2936,0.294,0.2944,0.2946,0.295,0.2951,0.2956,0.2954,0.2962,0.2959,0.2961,0.2963,0.2964,0.2964,0.2961,0.2966,0.2974,0.2975,0.2965,0.2965,0.2965,0,0.2908,0.2917,0.2923,0.2925,0.2932,0.2935,0.2938,0.2942,0.2945,0.295,0.2952,0.2957,0.296,0.2964,0.2967,0.2965,0.2975,0.2972,0.2976,0.2976,0.2978,0.2977,0.2986,0.298,0.298,0.298,0.298,0,0.2914,0.2919,0.2924,0.2928,0.2934,0.2937,0.2942,0.2945,0.295,0.2954,0.2955,0.296,0.2963,0.2967,0.297,0.2976,0.2977,0.2979,0.2979,0.2978,0.2978,0.298,0.298,0.298,0.298,0.298,0.298,0,0.2917,0.2921,0.2928,0.2934,0.2936,0.294,0.2945,0.2949,0.2951,0.2957,0.2959,0.2963,0.2968,0.2972,0.2979,0.298,0.2987,0.2987,0.2985,0.2986,0.2989,0.2989,0.2999,0.3001,0.2993,0.2993,0.2993,0,0.2921,0.2925,0.2932,0.2935,0.2938,0.2943,0.2947,0.295,0.2953,0.2959,0.2963,0.2968,0.2973,0.2982,0.2986,0.2991,0.2992,0.2995,0.2992,0.2992,0.2992,0.2991,0.2992,0.2995,0.2995,0.2995,0.2995,0,0.2927,0.2928,0.2933,0.2939,0.2944,0.2948,0.2953,0.2955,0.296,0.2964,0.2969,0.2973,0.2981,0.2986,0.2992,0.2995,0.2996,0.2996,0.2997,0.2997,0.2995,0.2996,0.2987,0.2996,0.2996,0.2996,0.2996,0.2996,0.293,0.2934,0.2939,0.2945,0.2949,0.2954,0.2958,0.2961,0.2966,0.2973,0.2975,0.2981,0.2986,0.2994,0.2997,0.3002,0.3002,0.3003,0.3003,0.3004,0.3004,0.2995,0.3003,0.3003,0.3003,0.3003,0.3003,0,0.2936,0.294,0.2945,0.2952,0.2956,0.2957,0.2963,0.2966,0.2972,0.2977,0.2982,0.2989,0.2995,0.2999,0.3005,0.3008,0.3009,0.301,0.3009,0.301,0.3004,0.3003,0.3009,0.3009,0.3009,0.3009,0.3009,0.3009,0.2939,0.2946,0.2949,0.2958,0.2961,0.2968,0.2971,0.2975,0.2979,0.2987,0.2992,0.2995,0.2999,0.3006,0.3011,0.3013,0.3015,0.3015,0.3017,0.3011,0.301,0.301,0.3008,0.3016,0.3016,0.3022,0.3022,0.3022]},{"header":{"parameterUnit":"m.s-1","parameterCategory":1,"la1":30.2991,"la2":30.254,"lo1":-89.0895,"lo2":-89.0444,"dy":0.0017,"dx":0.0017,"nx":28,"ny":28,"refTime":"2024-02-15T03:00:00:Z","depth":0,"parameterNumber":3,"parameterNumberName":"V-component_of_WINDS"},"data":[0,0,0,0,0,0,0,0,0,0,0,0,0,0,0,0,0,0,0,0,0,0,0,0,0,0,0,0,0,0,0,0,0,0,0,0,0,0,0,0,0,0,0,0,0,0,0,0,0,0,0,0,0,0,0,0,0,0,1.093,1.093,0,1.0922,1.0922,1.0922,1.0909,1.0908,1.0908,1.0908,1.09,1.09,1.09,0,0,0,0,0,0,0,0,0,0,0,0,0,1.0932,1.0932,1.093,1.093,1.093,1.0922,1.0922,1.0922,1.0909,1.0908,1.0908,1.0908,1.09,1.09,1.09,0,0,0,0,0,0,0,0,0,0,0,0,0,1.0929,1.0932,1.093,1.0922,1.0921,1.0922,1.0922,1.0922,1.0909,1.0908,1.0908,1.0908,1.09,1.09,1.09,1.0908,0,0,1.09,1.09,0,0,0,0,0,0,0,0,1.0929,1.0929,1.0923,1.0923,1.0922,1.0916,1.092,1.0917,1.0909,1.0913,1.0908,1.0907,1.0906,1.0905,1.0905,1.0908,1.0907,1.09,1.09,1.09,1.09,0,0,0,0,0,0,0,1.0929,1.0929,1.0927,1.0923,1.0922,1.0919,1.0918,1.092,1.0912,1.0913,1.0912,1.0911,1.0905,1.0905,1.0904,1.0907,1.09,1.09,1.09,1.09,1.0917,1.0918,0,0,0,0,0,0,1.0931,1.0929,1.0927,1.0927,1.0924,1.0919,1.0918,1.0918,1.0912,1.091,1.0912,1.0911,1.0905,1.0904,1.0904,1.0913,1.09,1.09,1.09,1.0917,1.0917,1.0918,0,0,0,0,0,0,1.0931,1.0931,1.0927,1.0928,1.0927,1.092,1.092,1.0918,1.0918,1.0911,1.0909,1.0913,1.0904,1.0904,1.0907,1.0913,1.09,1.09,1.0916,1.0917,1.0917,1.0932,0,0,0,0,0,0,1.0931,1.0931,1.0934,1.0928,1.0927,1.0931,1.092,1.0918,1.0918,1.0917,1.0911,1.091,1.0904,1.0907,1.0907,1.0913,1.09,1.0916,1.0917,1.0917,1.0931,1.0933,1.0934,0,0,0,0,0,1.0931,1.0938,1.0934,1.0934,1.093,1.0931,1.0931,1.0924,1.0918,1.0921,1.0917,1.091,1.0912,1.0908,1.0908,1.0913,1.0915,1.0916,1.0917,1.093,1.0932,1.0934,0,0,0,0,0,0,1.0944,1.0937,1.0932,1.0937,1.0935,1.0929,1.0932,1.0927,1.0926,1.0924,1.0916,1.0915,1.0919,1.0917,1.0912,1.0921,1.0913,1.0914,1.0922,1.0925,1.0927,1.0927,1.09,0,0,0,0,0,1.0948,1.0949,1.0942,1.0947,1.0946,1.094,1.094,1.0935,1.0932,1.0931,1.0926,1.0924,1.0924,1.0924,1.0924,1.093,1.0929,1.0934,1.0936,1.0938,1.0938,1.0942,1.0944,1.0921,1.0921,1.0921,0,0,1.0955,1.0951,1.0952,1.095,1.0947,1.0949,1.0939,1.0941,1.0942,1.0931,1.0934,1.0931,1.0927,1.0932,1.0934,1.093,1.0945,1.0939,1.094,1.094,1.0943,1.0945,1.0947,1.0921,1.0921,1.0921,0,0,1.0969,1.0966,1.097,1.0968,1.0964,1.096,1.0961,1.0956,1.0953,1.0956,1.0948,1.0949,1.095,1.0948,1.0947,1.0961,1.0954,1.0961,1.0971,1.0974,1.0976,1.0978,1.0983,1.0985,1.0962,1.0962,1.0962,0,1.0978,1.098,1.0973,1.0975,1.0975,1.0965,1.0969,1.0968,1.0964,1.0964,1.0959,1.096,1.0957,1.0962,1.0965,1.0965,1.0966,1.0961,1.0976,1.0978,1.0979,1.0984,1.0986,1.0963,1.0962,1.0962,1.0962,0,1.0992,1.0993,1.0997,1.0994,1.0994,1.0997,1.0991,1.0991,1.0987,1.0983,1.0986,1.0982,1.0981,1.0982,1.0977,1.0986,1.0984,1.0978,1.097,1.0982,1.0987,1.0988,1.0964,1.0963,1.0963,1.0963,0,0,1.1013,1.1007,1.1008,1.1007,1.1003,1.1004,1.1007,1.1006,1.1007,1.1005,1.1007,1.1008,1.1003,1.1002,1.0997,1.1,1.1012,1.0994,1.0994,1.0998,1.1022,1.1026,1.1028,1.1008,1.1008,1.1008,1.1022,0,1.1026,1.1031,1.1025,1.1031,1.1032,1.1024,1.1027,1.1024,1.1021,1.1022,1.1018,1.1019,1.1012,1.1011,1.1014,1.101,1.1016,1.1009,1.101,1.101,1.1011,1.103,1.1035,1.1048,1.1024,1.1024,1.1024,0,1.1042,1.1041,1.1047,1.1043,1.1043,1.1046,1.1045,1.1046,1.1043,1.104,1.104,1.1034,1.1037,1.1029,1.1033,1.1028,1.1028,1.1026,1.1027,1.1026,1.1018,1.1031,1.1052,1.1054,1.1027,1.1026,1.1026,0,1.1057,1.1057,1.1061,1.1061,1.1056,1.1058,1.1056,1.1053,1.1053,1.1052,1.1052,1.1052,1.1051,1.1051,1.1046,1.104,1.105,1.1042,1.1048,1.1048,1.1051,1.105,1.1072,1.1051,1.1051,1.1051,1.1051,0,1.1072,1.1076,1.1068,1.1071,1.1075,1.1068,1.1073,1.107,1.1068,1.107,1.1063,1.1064,1.1057,1.1058,1.1054,1.1058,1.1058,1.1056,1.1054,1.1056,1.1057,1.1056,1.1055,1.1051,1.1051,1.1051,1.1051,0,1.109,1.1084,1.1088,1.1083,1.1082,1.1086,1.1082,1.1084,1.108,1.1083,1.1083,1.1077,1.1078,1.1073,1.1073,1.107,1.1076,1.1073,1.1077,1.1076,1.1083,1.1082,1.1105,1.1108,1.1085,1.1085,1.1085,0,1.11,1.1103,1.1098,1.1099,1.1098,1.1099,1.1099,1.1093,1.1093,1.1091,1.1093,1.1094,1.1094,1.1096,1.1092,1.1092,1.1089,1.1097,1.1089,1.1091,1.1089,1.1089,1.1089,1.1099,1.1099,1.1099,1.1099,0,1.1118,1.1115,1.1116,1.1115,1.1116,1.1115,1.1114,1.1115,1.1108,1.1109,1.111,1.111,1.1111,1.1111,1.1111,1.1109,1.1103,1.1102,1.1103,1.1105,1.1107,1.1106,1.1082,1.1101,1.1101,1.1101,1.1101,1.1101,1.1132,1.1134,1.1132,1.1133,1.1131,1.1131,1.1132,1.1129,1.113,1.113,1.1126,1.1128,1.1126,1.1124,1.1123,1.1125,1.1121,1.1123,1.1123,1.1124,1.1125,1.1107,1.1124,1.1124,1.1124,1.1124,1.1124,0,1.115,1.1148,1.1149,1.1147,1.1148,1.1143,1.1142,1.1143,1.1145,1.1143,1.1143,1.1145,1.1146,1.1142,1.1142,1.1144,1.1141,1.1144,1.1144,1.1144,1.1128,1.1127,1.1146,1.1146,1.1146,1.1146,1.1146,1.1146,1.1159,1.1163,1.116,1.1164,1.1162,1.1164,1.1163,1.1163,1.1162,1.1164,1.1164,1.1162,1.1159,1.116,1.116,1.1159,1.1159,1.1163,1.1161,1.1147,1.1145,1.1143,1.1141,1.1163,1.1163,1.1176,1.1176,1.1177]}]]